User: anonymous
Location: Caltech
(34.1382°N, 118.1253°W)
Time: 17:26:41
(UTC-07:00)
Language:

Iridium 12 - Orbit

View from above orbital plane
View from above orbital plane
View from above satellite
View from above satellite

Ground track
Ground track

The orbit data is extracted from the following two-line orbital elements,

1 24837U 97030B   14204.26652159  .00000155  00000-0  48431-4 0  9175
2 24837 086.3936 073.1776 0002176 099.5068 034.1507 14.34213540895026
Epoch (UTC): 23 July 2014 06:23:47
Eccentricity: 0.0002176
inclination: 86.3936°
perigee height: 776 km
apogee height: 779 km
right ascension of ascending node: 73.1776°
argument of perigee: 99.5068°
revolutions per day: 14.34213540
mean anomaly at epoch: 34.1507°
orbit number at epoch: 89502

The dashed part of the orbit path shows where the satellite is in the earth's shadow,  

DLR